Time,TemperatureF,DewpointF,PressureIn,WindDirection,WindDirectionDegrees,WindSpeedMPH,WindSpeedGustMPH,Humidity,HourlyPrecipIn,Conditions,Clouds,dailyrainin,SoftwareType,DateUTC
2013-08-19 00:00:00,79.2,59.1,30.01,North,0,0.0,0.0,50,0.00,,,0.00,WUHU216HW,2013-08-19 05:00:00,
2013-08-19 00:05:00,79.2,59.1,30.01,North,0,0.0,0.0,50,0.00,,,0.00,WUHU216HW,2013-08-19 05:05:00,
2013-08-19 00:30:00,78.8,59.2,30.01,North,0,0.0,0.0,51,0.00,,,0.00,WUHU216HW,2013-08-19 05:30:00,
2013-08-19 00:35:00,78.8,59.2,30.01,North,0,0.0,0.0,51,0.00,,,0.00,WUHU216HW,2013-08-19 05:35:00,
2013-08-19 01:00:00,77.9,58.9,30.00,North,0,0.0,0.0,52,0.00,,,0.00,WUHU216HW,2013-08-19 06:00:00,
2013-08-19 01:05:00,77.9,58.9,30.00,North,0,0.0,0.0,52,0.00,,,0.00,WUHU216HW,2013-08-19 06:05:00,
2013-08-19 01:30:00,77.4,59.0,30.00,North,0,0.0,0.0,53,0.00,,,0.00,WUHU216HW,2013-08-19 06:30:00,
2013-08-19 01:35:00,77.4,59.0,30.00,North,0,0.0,0.0,53,0.00,,,0.00,WUHU216HW,2013-08-19 06:35:00,
2013-08-19 02:00:00,76.7,59.2,30.00,North,0,0.0,0.0,55,0.00,,,0.00,WUHU216HW,2013-08-19 07:00:00,
2013-08-19 02:05:00,76.7,59.2,30.00,North,0,0.0,0.0,55,0.00,,,0.00,WUHU216HW,2013-08-19 07:05:00,
2013-08-19 02:30:00,76.7,59.8,30.00,North,0,0.0,0.0,56,0.00,,,0.00,WUHU216HW,2013-08-19 07:30:00,
2013-08-19 02:35:00,76.7,59.8,30.00,North,0,0.0,0.0,56,0.00,,,0.00,WUHU216HW,2013-08-19 07:35:00,
2013-08-19 03:00:00,76.3,59.9,29.99,North,0,0.0,0.0,57,0.00,,,0.00,WUHU216HW,2013-08-19 08:00:00,
2013-08-19 03:05:00,76.3,59.9,29.99,North,0,0.0,0.0,57,0.00,,,0.00,WUHU216HW,2013-08-19 08:05:00,
2013-08-19 03:30:00,75.8,60.5,30.00,North,0,0.0,0.0,59,0.00,,,0.00,WUHU216HW,2013-08-19 08:30:00,
2013-08-19 03:35:00,75.8,60.5,30.00,North,0,0.0,0.0,59,0.00,,,0.00,WUHU216HW,2013-08-19 08:35:00,
2013-08-19 04:00:00,75.2,61.4,30.00,North,0,0.0,0.0,62,0.00,,,0.00,WUHU216HW,2013-08-19 09:00:00,
2013-08-19 04:05:00,75.2,61.4,30.00,North,0,0.0,0.0,62,0.00,,,0.00,WUHU216HW,2013-08-19 09:05:00,
2013-08-19 04:30:00,74.5,61.6,29.99,North,0,0.0,0.0,64,0.00,,,0.00,WUHU216HW,2013-08-19 09:30:00,
2013-08-19 04:35:00,74.5,61.6,29.99,North,0,0.0,0.0,64,0.00,,,0.00,WUHU216HW,2013-08-19 09:35:00,
2013-08-19 05:00:00,74.0,61.9,29.99,North,0,0.0,0.0,66,0.00,,,0.00,WUHU216HW,2013-08-19 10:00:00,
2013-08-19 05:05:00,74.0,61.9,29.99,North,0,0.0,0.0,66,0.00,,,0.00,WUHU216HW,2013-08-19 10:05:00,
2013-08-19 05:30:00,73.4,61.8,29.99,North,0,0.0,0.0,67,0.00,,,0.00,WUHU216HW,2013-08-19 10:30:00,
2013-08-19 05:35:00,73.4,61.8,29.99,North,0,0.0,0.0,67,0.00,,,0.00,WUHU216HW,2013-08-19 10:35:00,
2013-08-19 06:00:00,72.7,62.0,30.00,North,0,0.0,0.0,69,0.00,,,0.00,WUHU216HW,2013-08-19 11:00:00,
2013-08-19 06:05:00,72.7,62.0,30.00,North,0,0.0,0.0,69,0.00,,,0.00,WUHU216HW,2013-08-19 11:05:00,
2013-08-19 06:30:00,72.4,62.1,30.00,North,0,0.0,0.0,70,0.00,,,0.00,WUHU216HW,2013-08-19 11:30:00,
2013-08-19 06:35:00,72.4,62.1,30.00,North,0,0.0,0.0,70,0.00,,,0.00,WUHU216HW,2013-08-19 11:35:00,
2013-08-19 07:00:00,72.0,62.5,30.01,North,0,0.0,0.0,72,0.00,,,0.00,WUHU216HW,2013-08-19 12:00:00,
2013-08-19 07:05:00,72.0,62.5,30.01,North,0,0.0,0.0,72,0.00,,,0.00,WUHU216HW,2013-08-19 12:05:00,
2013-08-19 07:30:00,72.0,62.5,30.02,North,0,0.0,0.0,72,0.00,,,0.00,WUHU216HW,2013-08-19 12:30:00,
2013-08-19 07:35:00,72.0,62.5,30.02,North,0,0.0,0.0,72,0.00,,,0.00,WUHU216HW,2013-08-19 12:35:00,
2013-08-19 08:00:00,72.9,63.4,30.03,North,0,0.0,0.0,72,0.00,,,0.00,WUHU216HW,2013-08-19 13:00:00,
2013-08-19 08:05:00,72.9,63.4,30.03,North,0,0.0,0.0,72,0.00,,,0.00,WUHU216HW,2013-08-19 13:05:00,
2013-08-19 08:30:00,74.9,64.4,30.04,North,0,0.0,0.0,70,0.00,,,0.00,WUHU216HW,2013-08-19 13:30:00,
2013-08-19 08:35:00,74.9,64.4,30.04,North,0,0.0,0.0,70,0.00,,,0.00,WUHU216HW,2013-08-19 13:35:00,
2013-08-19 09:00:00,76.7,64.9,30.04,North,0,0.0,0.0,67,0.00,,,0.00,WUHU216HW,2013-08-19 14:00:00,
2013-08-19 09:05:00,76.7,64.9,30.04,North,0,0.0,0.0,67,0.00,,,0.00,WUHU216HW,2013-08-19 14:05:00,
2013-08-19 09:30:00,79.0,65.8,30.05,North,0,0.0,0.0,64,0.00,,,0.00,WUHU216HW,2013-08-19 14:30:00,
2013-08-19 09:35:00,79.0,65.8,30.05,North,0,0.0,0.0,64,0.00,,,0.00,WUHU216HW,2013-08-19 14:35:00,
2013-08-19 10:00:00,80.6,64.4,30.05,North,0,0.0,0.0,58,0.00,,,0.00,WUHU216HW,2013-08-19 15:00:00,
2013-08-19 10:05:00,80.6,64.4,30.05,North,0,0.0,0.0,58,0.00,,,0.00,WUHU216HW,2013-08-19 15:05:00,
2013-08-19 10:30:00,82.3,65.4,30.05,North,0,0.0,0.0,57,0.00,,,0.00,WUHU216HW,2013-08-19 15:30:00,
2013-08-19 10:35:00,82.3,65.4,30.05,North,0,0.0,0.0,57,0.00,,,0.00,WUHU216HW,2013-08-19 15:35:00,
2013-08-19 11:00:00,83.7,64.7,30.05,North,0,0.0,0.0,53,0.00,,,0.00,WUHU216HW,2013-08-19 16:00:00,
2013-08-19 11:05:00,83.7,64.7,30.05,North,0,0.0,0.0,53,0.00,,,0.00,WUHU216HW,2013-08-19 16:05:00,
2013-08-19 11:30:00,85.5,64.9,30.05,North,0,0.0,0.0,50,0.00,,,0.00,WUHU216HW,2013-08-19 16:30:00,
2013-08-19 11:35:00,85.5,64.9,30.05,North,0,0.0,0.0,50,0.00,,,0.00,WUHU216HW,2013-08-19 16:35:00,
2013-08-19 12:00:00,87.1,62.6,30.05,North,0,0.0,0.0,44,0.00,,,0.00,WUHU216HW,2013-08-19 17:00:00,
2013-08-19 12:05:00,87.1,62.6,30.05,North,0,0.0,0.0,44,0.00,,,0.00,WUHU216HW,2013-08-19 17:05:00,
2013-08-19 12:30:00,88.6,62.6,30.04,North,0,0.0,0.0,42,0.00,,,0.00,WUHU216HW,2013-08-19 17:30:00,
2013-08-19 12:35:00,88.6,62.6,30.04,North,0,0.0,0.0,42,0.00,,,0.00,WUHU216HW,2013-08-19 17:35:00,
2013-08-19 13:00:00,89.8,62.3,30.03,North,0,0.0,0.0,40,0.00,,,0.00,WUHU216HW,2013-08-19 18:00:00,
2013-08-19 13:05:00,89.8,62.3,30.03,North,0,0.0,0.0,40,0.00,,,0.00,WUHU216HW,2013-08-19 18:05:00,
2013-08-19 13:30:00,91.1,59.4,30.02,North,0,0.0,0.0,35,0.00,,,0.00,WUHU216HW,2013-08-19 18:30:00,
2013-08-19 13:35:00,91.1,59.4,30.02,North,0,0.0,0.0,35,0.00,,,0.00,WUHU216HW,2013-08-19 18:35:00,
2013-08-19 14:00:00,92.2,59.6,30.01,North,0,0.0,0.0,34,0.00,,,0.00,WUHU216HW,2013-08-19 19:00:00,
2013-08-19 14:05:00,92.2,59.6,30.01,North,0,0.0,0.0,34,0.00,,,0.00,WUHU216HW,2013-08-19 19:05:00,
2013-08-19 14:30:00,93.2,61.3,29.99,North,0,0.0,0.0,35,0.00,,,0.00,WUHU216HW,2013-08-19 19:30:00,
2013-08-19 14:35:00,93.2,61.3,29.99,North,0,0.0,0.0,35,0.00,,,0.00,WUHU216HW,2013-08-19 19:35:00,
2013-08-19 15:00:00,94.0,60.3,29.98,North,0,0.0,0.0,33,0.00,,,0.00,WUHU216HW,2013-08-19 20:00:00,
2013-08-19 15:05:00,94.0,60.3,29.98,North,0,0.0,0.0,33,0.00,,,0.00,WUHU216HW,2013-08-19 20:05:00,
2013-08-19 15:30:00,94.0,61.1,29.96,North,0,0.0,0.0,34,0.00,,,0.00,WUHU216HW,2013-08-19 20:30:00,
2013-08-19 15:35:00,94.0,61.1,29.96,North,0,0.0,0.0,34,0.00,,,0.00,WUHU216HW,2013-08-19 20:35:00,
2013-08-19 16:00:00,94.3,60.7,29.95,North,0,0.0,0.0,33,0.00,,,0.00,WUHU216HW,2013-08-19 21:00:00,
2013-08-19 16:05:00,94.3,60.7,29.95,North,0,0.0,0.0,33,0.00,,,0.00,WUHU216HW,2013-08-19 21:05:00,
2013-08-19 16:30:00,94.0,60.3,29.94,North,0,0.0,0.0,33,0.00,,,0.00,WUHU216HW,2013-08-19 21:30:00,
2013-08-19 16:35:00,94.0,60.3,29.94,North,0,0.0,0.0,33,0.00,,,0.00,WUHU216HW,2013-08-19 21:35:00,
2013-08-19 17:00:00,94.3,60.7,29.94,North,0,0.0,0.0,33,0.00,,,0.00,WUHU216HW,2013-08-19 22:00:00,
2013-08-19 17:05:00,94.3,60.7,29.94,North,0,0.0,0.0,33,0.00,,,0.00,WUHU216HW,2013-08-19 22:05:00,
2013-08-19 17:30:00,94.0,61.1,29.93,North,0,0.0,0.0,34,0.00,,,0.00,WUHU216HW,2013-08-19 22:30:00,
2013-08-19 17:35:00,94.0,61.1,29.93,North,0,0.0,0.0,34,0.00,,,0.00,WUHU216HW,2013-08-19 22:35:00,
2013-08-19 18:00:00,93.2,61.3,29.93,North,0,0.0,0.0,35,0.00,,,0.00,WUHU216HW,2013-08-19 23:00:00,
2013-08-19 18:05:00,93.2,61.3,29.93,North,0,0.0,0.0,35,0.00,,,0.00,WUHU216HW,2013-08-19 23:05:00,
2013-08-19 18:30:00,92.7,60.9,29.92,North,0,0.0,0.0,35,0.00,,,0.00,WUHU216HW,2013-08-19 23:30:00,
2013-08-19 18:35:00,92.7,60.9,29.92,North,0,0.0,0.0,35,0.00,,,0.00,WUHU216HW,2013-08-19 23:35:00,
2013-08-19 19:00:00,92.0,61.0,29.92,North,0,0.0,0.0,36,0.00,,,0.00,WUHU216HW,2013-08-20 00:00:00,
2013-08-19 19:05:00,92.0,61.0,29.92,North,0,0.0,0.0,36,0.00,,,0.00,WUHU216HW,2013-08-20 00:05:00,
2013-08-19 19:30:00,91.1,60.2,29.92,North,0,0.0,0.0,36,0.00,,,0.00,WUHU216HW,2013-08-20 00:30:00,
2013-08-19 19:35:00,91.1,60.2,29.92,North,0,0.0,0.0,36,0.00,,,0.00,WUHU216HW,2013-08-20 00:35:00,
2013-08-19 20:00:00,90.0,60.8,29.92,North,0,0.0,0.0,38,0.00,,,0.00,WUHU216HW,2013-08-20 01:00:00,
2013-08-19 20:05:00,90.0,60.8,29.92,North,0,0.0,0.0,38,0.00,,,0.00,WUHU216HW,2013-08-20 01:05:00,
2013-08-19 20:30:00,88.9,60.8,29.92,North,0,0.0,0.0,39,0.00,,,0.00,WUHU216HW,2013-08-20 01:30:00,
2013-08-19 20:35:00,88.9,60.8,29.92,North,0,0.0,0.0,39,0.00,,,0.00,WUHU216HW,2013-08-20 01:35:00,
2013-08-19 21:00:00,87.5,60.9,29.93,North,0,0.0,0.0,41,0.00,,,0.00,WUHU216HW,2013-08-20 02:00:00,
2013-08-19 21:05:00,87.5,60.9,29.93,North,0,0.0,0.0,41,0.00,,,0.00,WUHU216HW,2013-08-20 02:05:00,
2013-08-19 21:30:00,86.8,60.9,29.94,North,0,0.0,0.0,42,0.00,,,0.00,WUHU216HW,2013-08-20 02:30:00,
2013-08-19 21:35:00,86.8,60.9,29.94,North,0,0.0,0.0,42,0.00,,,0.00,WUHU216HW,2013-08-20 02:35:00,
2013-08-19 22:00:00,86.4,58.6,29.95,North,0,0.0,0.0,39,0.00,,,0.00,WUHU216HW,2013-08-20 03:00:00,
2013-08-19 22:05:00,86.4,58.6,29.95,North,0,0.0,0.0,39,0.00,,,0.00,WUHU216HW,2013-08-20 03:05:00,
2013-08-19 22:30:00,85.7,58.0,29.95,North,0,0.0,0.0,39,0.00,,,0.00,WUHU216HW,2013-08-20 03:30:00,
2013-08-19 22:35:00,85.7,58.0,29.95,North,0,0.0,0.0,39,0.00,,,0.00,WUHU216HW,2013-08-20 03:35:00,
2013-08-19 23:00:00,85.0,57.2,29.96,North,0,0.0,0.0,39,0.00,,,0.00,WUHU216HW,2013-08-20 04:00:00,
2013-08-19 23:01:00,85.0,57.2,29.96,North,0,0.0,0.0,39,0.00,,,0.00,WUHU216HW,2013-08-20 04:01:00,
2013-08-19 23:06:00,85.0,57.2,29.96,North,0,0.0,0.0,39,0.00,,,0.00,WUHU216HW,2013-08-20 04:06:00,
2013-08-19 23:30:00,83.7,57.6,29.96,North,0,0.0,0.0,41,0.00,,,0.00,WUHU216HW,2013-08-20 04:30:00,
2013-08-19 23:35:00,83.7,57.6,29.96,North,0,0.0,0.0,41,0.00,,,0.00,WUHU216HW,2013-08-20 04:35:00,